This demonstration page uses our WeatherBlox Daily Observations layout. Learn more.

Left ArrowRight Arrow

30.21309, -93.2044

Hourly Observations for May 12, 2015

Temp ( °F °C ) Dew Point ( °F °C ) Humidity (%) Winds ( mph kmh ) Pressure ( in mb ) Visibility ( mi km ) Precip ( " mm )
12:15 am 00:15 Clear 68 19.9 67 19.5 98 98 N 5 7 30.09 1019 10 16 0.00 0.00
12:35 am 00:35 Clear 67 19.7 67 19.5 99 99 N 5 7 30.06 1018 10 16 0.00 0.00
12:55 am 00:55 Clear 67 19.7 67 19.3 98 98 N 8 13 30.06 1018 10 16 0.00 0.00
1:15 am 01:15 Clear 68 19.8 67 19.3 97 97 N 6 9 30.09 1019 10 16 0.00 0.00
1:35 am 01:35 Clear 68 19.8 67 19.3 97 97 N 5 7 30.09 1019 10 16 0.00 0.00
1:55 am 01:55 Clear 67 19.7 67 19.2 97 97 N 5 7 30.09 1019 10 16 0.00 0.00
2:15 am 02:15 Clear 67 19.7 67 19.2 97 97 N 3 6 30.09 1019 10 16 0.00 0.00
2:35 am 02:35 Clear 67 19.6 66 19.1 97 97 NNE 6 9 30.09 1019 10 16 0.00 0.00
2:55 am 02:55 Clear 68 19.9 67 19.3 96 96 NNE 6 9 30.09 1019 10 16 0.00 0.00
3:15 am 03:15 Clear 68 20 67 19.2 95 95 NE 5 7 30.09 1019 10 16 0.00 0.00
3:35 am 03:35 Partly Cloudy 68 19.8 67 19.2 96 96 NE 5 7 30.12 1020 10 16 0.00 0.00
3:55 am 03:55 Partly Cloudy 68 19.9 67 19.4 97 97 NE 3 6 30.12 1020 10 16 0.00 0.00
4:15 am 04:15 Clear 68 19.9 67 19.4 97 97 NNE 3 6 30.12 1020 10 16 0.00 0.00
4:35 am 04:35 Clear 68 19.8 67 19.3 97 97 NNE 3 6 30.12 1020 10 16 0.00 0.00
4:55 am 04:55 Clear 68 20 67 19.4 96 96 NNE 5 7 30.12 1020 10 16 0.00 0.00
5:15 am 05:15 Clear 68 19.8 67 19.2 96 96 NNE 6 9 30.12 1020 10 16 0.00 0.00
6:00 am 06:00 Mostly Cloudy 68 20 66 19 94 94 ENE 3 6 30.15 1021 10 16 0.00 0.00
6:55 am 06:55 Mostly Cloudy 70 21 66 19 88 88 N 8 13 30.15 1021 10 16 0.00 0.00
7:45 am 07:45 Cloudy 68 20 68 20 100 100 N 8 13 30.18 1022 10 16 0.00 0.00
8:50 am 08:50 Partly Cloudy 72 22 70 21 94 94 E 12 19 30.18 1022 10 16 0.00 0.00
9:45 am 09:45 Mostly Cloudy 75 24 70 21 83 83 ENE 8 13 30.18 1022 10 16 0.00 0.00
10:45 am 10:45 Partly Cloudy 79 26 70 21 74 74 ENE 13 20 30.18 1022 10 16 0.00 0.00
11:45 am 11:45 Mostly Sunny 81 27 70 21 70 70 ENE 13 20 30.18 1022 10 16 0.00 0.00
12:45 pm 12:45 Mostly Sunny 82 28 68 20 62 62 ENE 13 20 30.18 1022 10 16 0.00 0.00
1:45 pm 13:45 Mostly Sunny 82 28 70 21 66 66 ENE 13 20 30.18 1022 10 16 0.00 0.00
9:50 pm 21:50 Mostly Cloudy 73 23 70 21 89 89 E 5 7 30.12 1020 10 16 0.00 0.00
10:15 pm 22:15 Mostly Cloudy 73 22.6 70 21 91 91 E 3 6 30.15 1021 10 16 0.00 0.00
10:35 pm 22:35 Cloudy 73 22.8 70 21.1 90 90 ENE 6 9 30.15 1021 10 16 0.00 0.00
10:55 pm 22:55 Mostly Cloudy 73 23 69 20.5 86 86 ENE 6 9 30.15 1021 10 16 0.00 0.00
11:15 pm 23:15 Mostly Cloudy 73 22.8 68 20 84 84 E 8 13 30.15 1021 10 16 0.00 0.00
11:35 pm 23:35 Mostly Cloudy 73 22.8 66 19 79 79 E 12 19 30.15 1021 10 16 0.00 0.00
11:55 pm 23:55 Mostly Cloudy 72 22.3 66 18.7 80 80 E 9 15 30.15 1021 10 16 0.00 0.00

Powered by AerisWeather